Location: Newark
(11.0000°N, 122.6717°E)
Time: 16:38:11
(UTC+00:00)

STARLINK 1062 - Pass Details

Date: 16 December 2019
Orbit: 548 x 551 km, 53.0° (Epoch: 22 January)

Event Time Altitude Azimuth Distance (km) Brightness Sun altitude
Rises 10:04:39 0° 199° (SSW) 2,701 7.8 -8.8°
Reaches altitude 10° 10:07:01 10° 190° (S) 1,810 6.7 -9.4°
Maximum altitude 10:10:46 35° 123° (ESE) 899 4.4 -10.2°
Enters shadow 10:13:41 15° 63° (ENE) 1,516 5.2 -10.9°
